Regional Weather Roundup
Issued by NWS Tiyan, Guam

Home | Current Version | Previous Version | Text Only | Print | Product List | Glossary On
Versions: 1 2 3 4 5 6 7 8 9 10 11 12 13 14 15 16 17 18 19 20 21 22 23 24 25 26 27
000
ASGM40 PGUM 250412
RWRGUM
WEATHER ROUNDUP FOR THE MARIANAS
NATIONAL WEATHER SERVICE TIYAN GU
200 PM CHST SAT MAR 25 2017

GUZ001>004-250500-
MARIANA ISLANDS-

CITY           SKY/WX    TMP DP  RH WIND       PRES   REMARKS
GUAM AIRPORT   SUNNY     86  73  66 E13       29.91F HX  93
ANDERSEN AFB   MOSUNNY   82  73  74 E12       29.92F
ROTA AIRPORT   MOSUNNY   82  72  69 E9        29.91F
TINIAN AP      MOSUNNY   84  72  65 E10       29.90F
SAIPAN AP      MOSUNNY   84  72  65 E13       29.91F

$$





USA.gov is the U.S. government's official web portal to all federal, state and local government web resources and services.